TimeEDT,TemperatureF,Dew PointF,Humidity,Sea Level PressureIn,VisibilityMPH,Wind Direction,Wind SpeedMPH,Gust SpeedMPH,PrecipitationIn,Events,Conditions,WindDirDegrees,DateUTC
12:58 AM,78.8,73.2,83,29.83,10.0,Variable,3.5,-,0.00,,Drizzle,0,2013-06-13 04:58:00
1:58 AM,78.4,73.0,83,29.81,10.0,South,3.5,-,0.00,,Drizzle,180,2013-06-13 05:58:00
2:58 AM,78.4,73.0,83,29.78,10.0,Variable,4.6,-,0.00,,Drizzle,0,2013-06-13 06:58:00
3:58 AM,78.4,72.7,82,29.77,10.0,Variable,4.6,-,0.00,,Drizzle,0,2013-06-13 07:58:00
4:58 AM,77.2,72.5,85,29.77,10.0,SW,5.8,-,0.00,,Drizzle,220,2013-06-13 08:58:00
5:58 AM,76.5,72.5,87,29.75,10.0,South,5.8,-,0.00,,Drizzle,170,2013-06-13 09:58:00
6:58 AM,77.2,73.2,88,29.74,10.0,South,8.1,-,0.00,,Drizzle,180,2013-06-13 10:58:00
7:58 AM,79.3,73.9,83,29.73,10.0,South,5.8,-,0.00,,Drizzle,170,2013-06-13 11:58:00
8:52 AM,80.6,73.4,79,29.72,10.0,SW,5.8,-,N/A,,Clear,220,2013-06-13 12:52:00
8:58 AM,81.0,73.9,79,29.73,10.0,Variable,5.8,-,N/A,,Clear,0,2013-06-13 12:58:00
9:58 AM,83.8,75.6,76,29.71,10.0,SSW,5.8,-,N/A,,Clear,210,2013-06-13 13:58:00
10:58 AM,86.4,75.0,69,29.71,10.0,WSW,8.1,-,N/A,,Scattered Clouds,250,2013-06-13 14:58:00
11:58 AM,89.2,75.0,63,29.69,10.0,WSW,8.1,-,N/A,,Partly Cloudy,240,2013-06-13 15:58:00
12:58 PM,90.9,71.6,53,29.64,10.0,WSW,10.4,18.4,N/A,,Partly Cloudy,250,2013-06-13 16:58:00
1:58 PM,92.5,72.5,52,29.60,10.0,WSW,9.2,-,N/A,,Scattered Clouds,250,2013-06-13 17:58:00
2:58 PM,92.7,71.6,50,29.57,10.0,WSW,8.1,20.7,N/A,,Clear,240,2013-06-13 18:58:00
3:58 PM,93.4,72.7,51,29.53,10.0,SW,11.5,19.6,N/A,,Partly Cloudy,230,2013-06-13 19:58:00
4:58 PM,92.5,71.1,49,29.52,10.0,SW,13.8,24.2,N/A,,Clear,230,2013-06-13 20:58:00
5:05 PM,91.4,69.8,49,29.61,10.0,NW,38.0,-,N/A,,Squalls,310,2013-06-13 21:05:00
5:06 PM,91.4,69.8,49,29.61,10.0,NW,40.3,51.8,N/A,,Squalls,310,2013-06-13 21:06:00
5:09 PM,87.8,69.8,55,29.57,6.0,NW,43.7,52.9,N/A,Rain-Thunderstorm,Light Thunderstorms and Rain,310,2013-06-13 21:09:00
5:18 PM,73.4,68.0,83,29.60,3.0,NW,29.9,65.6,N/A,Rain-Thunderstorm,Thunderstorms and Rain,310,2013-06-13 21:18:00
5:21 PM,71.6,68.0,88,29.60,2.5,NW,29.9,65.6,N/A,Rain-Thunderstorm,Heavy Thunderstorms and Rain,310,2013-06-13 21:21:00
5:23 PM,71.6,68.0,88,29.61,3.0,WNW,28.8,46.0,N/A,Rain-Thunderstorm,Thunderstorms and Rain,300,2013-06-13 21:23:00
5:25 PM,71.6,68.0,88,29.60,2.5,NW,27.6,46.0,N/A,Rain-Thunderstorm,Heavy Thunderstorms and Rain,310,2013-06-13 21:25:00
5:27 PM,71.6,68.0,88,29.61,1.8,NW,26.5,46.0,N/A,Rain-Thunderstorm,Heavy Thunderstorms and Rain,310,2013-06-13 21:27:00
5:29 PM,71.6,68.0,88,29.60,1.5,NW,23.0,46.0,N/A,Rain-Thunderstorm,Light Thunderstorms and Rain,310,2013-06-13 21:29:00
5:34 PM,71.6,68.0,88,29.59,1.8,NW,17.3,35.7,N/A,Rain-Thunderstorm,Light Rain,310,2013-06-13 21:34:00
5:36 PM,71.6,68.0,88,29.59,2.0,NW,15.0,35.7,N/A,Rain-Thunderstorm,Light Rain,320,2013-06-13 21:36:00
5:37 PM,71.6,68.0,88,29.59,3.0,NW,18.4,31.1,N/A,Rain-Thunderstorm,Light Rain,310,2013-06-13 21:37:00
5:55 PM,72.0,68.2,88,29.57,10.0,WNW,11.5,-,0.23,,Light Drizzle,290,2013-06-13 21:55:00
6:55 PM,70.7,67.1,88,29.57,10.0,WNW,6.9,-,0.02,Rain,Light Rain,290,2013-06-13 22:55:00
7:55 PM,71.1,67.6,89,29.61,10.0,WSW,11.5,25.3,0.01,,Drizzle,240,2013-06-13 23:55:00
8:58 PM,71.2,67.5,88,29.56,10.0,WNW,16.1,18.4,0.03,,Drizzle,290,2013-06-14 00:58:00
9:55 PM,71.2,66.9,86,29.61,10.0,West,9.2,20.7,0.00,,Partly Cloudy,260,2013-06-14 01:55:00
9:58 PM,71.2,66.9,86,29.62,10.0,WSW,5.8,-,0.00,,Drizzle,250,2013-06-14 01:58:00
10:58 PM,70.7,67.1,88,29.63,10.0,Variable,5.8,-,0.00,,Drizzle,0,2013-06-14 02:58:00
11:58 PM,70.5,67.3,89,29.63,10.0,West,8.1,-,0.00,,Drizzle,280,2013-06-14 03:58:00